This is the latest recevied weather packets stored in our database for station/object WA4TPR. If no packets are shown the sender has not sent any weather packets the latest 10 day(s).
| Time | Temp. | Humidity | Pressure | Rain* | Wind** | Luminosity | Snow |
|---|---|---|---|---|---|---|---|
| 1778172457 | 31.67° C | 56% | 1019.9 hPa | 0 mm | - | 827 W/m² | - |
| 1778172154 | 32.22° C | 58% | 1020 hPa | 0 mm | - | 845 W/m² | - |
| 1778171851 | 31.11° C | 59% | 1020.1 hPa | 0 mm | - | 875 W/m² | - |
| 1778171549 | 31.11° C | 59% | 1020.3 hPa | 0 mm | - | 229 W/m² | - |
| 1778171245 | 31.67° C | 59% | 1020.2 hPa | 0 mm | - | 831 W/m² | - |
| 1778170941 | 31.11° C | 57% | 1020.3 hPa | 0 mm | - | 835 W/m² | - |
| 1778170638 | 31.67° C | 61% | 1020.2 hPa | 0 mm | - | 231 W/m² | - |
| 1778170334 | 31.67° C | 62% | 1020.2 hPa | 0 mm | - | 826 W/m² | - |
| 1778170030 | 30° C | 64% | 1020.3 hPa | 0 mm | - | 843 W/m² | - |
| 1778169727 | 30° C | 64% | 1020.5 hPa | 0 mm | - | 836 W/m² | - |
| 1778169423 | 30.56° C | 65% | 1020.6 hPa | 0 mm | - | 538 W/m² | - |
| 1778169119 | 31.67° C | 63% | 1020.4 hPa | 0 mm | - | 825 W/m² | - |
| 1778168816 | 31.67° C | 62% | 1020.5 hPa | 0 mm | - | 669 W/m² | - |
| 1778168514 | 31.67° C | 63% | 1020.4 hPa | 0 mm | - | 797 W/m² | - |
| 1778168210 | 30.56° C | 65% | 1020.4 hPa | 0 mm | - | 747 W/m² | - |
| 1778167906 | 30° C | 66% | 1020.6 hPa | 0 mm | - | 734 W/m² | - |
| 1778167603 | 30.56° C | 68% | 1020.5 hPa | 0 mm | - | 701 W/m² | - |
| 1778167299 | 30.56° C | 66% | 1020.5 hPa | 0 mm | - | 696 W/m² | - |
| 1778166995 | 30° C | 68% | 1020.5 hPa | 0 mm | - | 678 W/m² | - |
| 1778166692 | 29.44° C | 69% | 1020.5 hPa | 0 mm | - | 666 W/m² | - |
| 1778166389 | 30° C | 70% | 1020.7 hPa | 0 mm | - | 651 W/m² | - |
| 1778166085 | 30° C | 67% | 1020.6 hPa | 0 mm | - | 633 W/m² | - |
| 1778165781 | 30° C | 68% | 1020.8 hPa | 0 mm | - | 632 W/m² | - |
| 1778165479 | 29.44° C | 70% | 1020.8 hPa | 0 mm | - | 607 W/m² | - |
| 1778165174 | 29.44° C | 72% | 1020.7 hPa | 0 mm | - | 592 W/m² | - |
* Rain latest hour (hover to see other rain measurements)
** Current wind speed in m/s (hover to see current wind gust speed)